Regional Weather Roundup
Issued by NWS

Home | Current Version | Previous Version | Text Only | Print | Product List | Glossary Off
Versions: 1 2 3 4 5 6 7 8 9 10 11 12 13 14 15 16 17 18 19 20 21 22 23 24 25 26 27 28 29 30 31 32 33 34 35 36 37 38 39 40 41 42 43 44 45 46 47 48 49 50

000
ASUS43 KLMK 271802
RWRKY
KENTUCKY REGIONAL WEATHER ROUNDUP
NATIONAL WEATHER SERVICE LOUISVILLE KY
200 PM EDT THU AUG 27 2015

NOTE "FAIR" INDICATES FEW OR NO CLOUDS BELOW 12,000 FEET
WITH NO SIGNIFICANT WEATHER AND/OR OBSTRUCTIONS TO VISIBILITY.

KYZ001>023-026-027-061>063-070>075-271900-
WESTERN AND SOUTH CENTRAL KENTUCKY

CITY           SKY/WX    TMP DP  RH WIND       PRES   REMARKS
PADUCAH        MOSUNNY   81  58  45 VRB3      30.12R
HENDERSON      MOSUNNY   77  57  50 E5        30.10F
OWENSBORO      MOSUNNY   79  58  48 SE9       30.12F
HOPKINSVILLE   SUNNY     79  56  44 E12G17    30.09F
BOWLING GREEN  MOSUNNY   80  55  42 NE17      30.13F
GLASGOW        NOT AVBL
$$

KYZ024-025-028>034-038-045-046-053-271900-
NORTH CENTRAL KENTUCKY

CITY           SKY/WX    TMP DP  RH WIND       PRES   REMARKS
LOUISVILLE/SDF PTSUNNY   79  55  43 VRB5      30.13F
LOUISVILLE/LOU PTSUNNY   78  54  43 E8        30.14F
FORT KNOX      MOSUNNY   77  57  49 E10       30.12F
$$

KYZ035>037-039>044-047>052-055>060-089>105-271900-
NORTHEAST KENTUCKY

CITY           SKY/WX    TMP DP  RH WIND       PRES   REMARKS
LEXINGTON      CLOUDY    75  53  46 NE13      30.18F
COVINGTON      PTSUNNY   74  55  51 NE9       30.17F
FRANKFORT      PTSUNNY   75  53  46 NE9       30.16F
$$

KYZ054-064>069-076>088-106>120-271900-
SOUTHEAST KENTUCKY

CITY           SKY/WX    TMP DP  RH WIND       PRES   REMARKS
JACKSON        MOSUNNY  N/A N/A N/A CALM      30.18F
LONDON         MOSUNNY   77  52  41 N10       30.16F
SOMERSET       NOT AVBL
MIDDLESBORO    NOT AVBL
MONTICELLO     CLEAR     78  57  48 NE13      30.17F
$$




USA.gov is the U.S. government's official web portal to all federal, state and local government web resources and services.